[[{"header":{"parameterUnit":"m.s-1","parameterCategory":1,"la1":30.2991,"la2":30.254,"lo1":-89.0895,"lo2":-89.0444,"dy":0.0017,"dx":0.0017,"nx":28,"ny":28,"refTime":"2025-11-25T03:00:00:Z","depth":0,"parameterNumber":2,"parameterNumberName":"U-component_of_WINDS"},"data":[0,0,0,0,0,0,0,0,0,0,0,0,0,0,0,0,0,0,0,0,0,0,0,0,0,0,0,0,0,0,0,0,0,0,0,0,0,0,0,0,0,0,0,0,0,0,0,0,0,0,0,0,0,0,0,0,0,0,-0.8542,-0.8544,0,-0.8676,-0.8678,-0.8679,-0.8732,-0.8732,-0.8731,-0.8731,-0.8865,-0.8869,-0.8873,0,0,0,0,0,0,0,0,0,0,0,0,0,-0.8329,-0.8333,-0.8542,-0.8544,-0.8546,-0.8676,-0.8678,-0.868,-0.8732,-0.8732,-0.8731,-0.8731,-0.8864,-0.8868,-0.8873,0,0,0,0,0,0,0,0,0,0,0,0,0,-0.8438,-0.8334,-0.8542,-0.8587,-0.8593,-0.8676,-0.8678,-0.868,-0.8732,-0.8732,-0.8731,-0.8731,-0.8862,-0.8868,-0.8874,-0.892,0,0,-0.8891,-0.8894,0,0,0,0,0,0,0,0,-0.8432,-0.8446,-0.8579,-0.8584,-0.8591,-0.8687,-0.8652,-0.8761,-0.8732,-0.8679,-0.8731,-0.873,-0.8806,-0.8816,-0.8843,-0.8926,-0.8932,-0.8892,-0.8895,-0.8898,-0.89,0,0,0,0,0,0,0,-0.8424,-0.844,-0.8595,-0.8581,-0.8588,-0.86,-0.8615,-0.8673,-0.8744,-0.8684,-0.8688,-0.8703,-0.8809,-0.8837,-0.8846,-0.8934,-0.8892,-0.8897,-0.8901,-0.8903,-0.9064,-0.9065,0,0,0,0,0,0,-0.841,-0.8434,-0.8591,-0.8599,-0.8509,-0.8605,-0.8621,-0.8657,-0.8743,-0.8756,-0.8703,-0.8705,-0.8827,-0.8839,-0.8851,-0.8912,-0.8898,-0.8903,-0.8907,-0.9063,-0.9064,-0.9065,0,0,0,0,0,0,-0.8405,-0.8423,-0.8586,-0.8518,-0.8539,-0.8609,-0.8648,-0.8659,-0.8687,-0.8758,-0.8771,-0.8719,-0.8827,-0.8843,-0.8903,-0.8918,-0.8906,-0.8911,-0.9062,-0.9063,-0.9064,-0.9034,0,0,0,0,0,0,-0.8398,-0.8421,-0.844,-0.8518,-0.8543,-0.8636,-0.8649,-0.8662,-0.8698,-0.8701,-0.8776,-0.8788,-0.8828,-0.8894,-0.8909,-0.8925,-0.8916,-0.9061,-0.9063,-0.9064,-0.9034,-0.9034,-0.9034,0,0,0,0,0,-0.8391,-0.8425,-0.8441,-0.8459,-0.8568,-0.8637,-0.8651,-0.8697,-0.8699,-0.8718,-0.8764,-0.8786,-0.8913,-0.89,-0.8917,-0.8935,-0.906,-0.9062,-0.9064,-0.9034,-0.9034,-0.9034,0,0,0,0,0,0,-0.8346,-0.8436,-0.8454,-0.8515,-0.8568,-0.8646,-0.8672,-0.8695,-0.8748,-0.8749,-0.8803,-0.8819,-0.8875,-0.8911,-0.8894,-0.8985,-0.8988,-0.8994,-0.896,-0.8961,-0.8961,-0.8951,-0.8921,0,0,0,0,0,-0.8344,-0.8393,-0.8468,-0.8515,-0.8541,-0.8601,-0.8633,-0.8664,-0.872,-0.8743,-0.8793,-0.8846,-0.8898,-0.8931,-0.8983,-0.9039,-0.9057,-0.9061,-0.906,-0.906,-0.9064,-0.9097,-0.91,-0.9071,-0.9071,-0.907,0,0,-0.8338,-0.8394,-0.8421,-0.8507,-0.8552,-0.8601,-0.862,-0.8671,-0.8708,-0.875,-0.8811,-0.8849,-0.8912,-0.8971,-0.8999,-0.9002,-0.9076,-0.9062,-0.9061,-0.9066,-0.9099,-0.9102,-0.9105,-0.9072,-0.9071,-0.9071,0,0,-0.8355,-0.8401,-0.8446,-0.849,-0.8558,-0.8598,-0.8609,-0.8683,-0.8711,-0.8773,-0.8806,-0.885,-0.8938,-0.8982,-0.9016,-0.9049,-0.9071,-0.9064,-0.9064,-0.9096,-0.9098,-0.91,-0.9113,-0.9117,-0.9068,-0.9068,-0.9068,0,-0.8339,-0.8416,-0.8465,-0.8515,-0.8552,-0.8594,-0.8639,-0.8679,-0.876,-0.8784,-0.8787,-0.89,-0.8945,-0.9015,-0.9023,-0.9049,-0.9063,-0.9056,-0.9094,-0.9097,-0.91,-0.9112,-0.9117,-0.9066,-0.9067,-0.9067,-0.9067,0,-0.8394,-0.8447,-0.8474,-0.8553,-0.8593,-0.8639,-0.8695,-0.873,-0.8757,-0.8797,-0.8859,-0.8915,-0.8979,-0.8998,-0.9025,-0.9072,-0.9072,-0.9084,-0.9088,-0.91,-0.9113,-0.9118,-0.9065,-0.9065,-0.9065,-0.9066,0,0,-0.8386,-0.8492,-0.8501,-0.8538,-0.8616,-0.8657,-0.8706,-0.877,-0.8799,-0.8852,-0.8895,-0.8969,-0.8981,-0.9019,-0.9051,-0.9079,-0.9102,-0.9087,-0.9089,-0.9088,-0.9158,-0.915,-0.9154,-0.9117,-0.9118,-0.9119,-0.9153,0,-0.8413,-0.8504,-0.855,-0.8621,-0.867,-0.871,-0.8753,-0.8805,-0.8843,-0.889,-0.8932,-0.8984,-0.8995,-0.9019,-0.9048,-0.9093,-0.9117,-0.9091,-0.9157,-0.9158,-0.9141,-0.9161,-0.9152,-0.9182,-0.9158,-0.9159,-0.916,0,-0.8457,-0.8513,-0.8588,-0.8662,-0.8684,-0.8722,-0.8785,-0.8829,-0.8888,-0.8914,-0.8957,-0.8989,-0.9041,-0.9041,-0.9114,-0.9095,-0.9125,-0.9151,-0.9153,-0.9162,-0.916,-0.9171,-0.9192,-0.9197,-0.9168,-0.9167,-0.9167,0,-0.8445,-0.8538,-0.8596,-0.8626,-0.8712,-0.8738,-0.8775,-0.8834,-0.887,-0.8925,-0.8948,-0.9007,-0.904,-0.9084,-0.9131,-0.9126,-0.9199,-0.9203,-0.9222,-0.9221,-0.9236,-0.9235,-0.9263,-0.9253,-0.9253,-0.9253,-0.9253,0,-0.8471,-0.8516,-0.8592,-0.8627,-0.8679,-0.8731,-0.878,-0.882,-0.8873,-0.8916,-0.8954,-0.8994,-0.9052,-0.9099,-0.9135,-0.9191,-0.9204,-0.9227,-0.9236,-0.9224,-0.9221,-0.9244,-0.9244,-0.9254,-0.9254,-0.9254,-0.9254,0,-0.8466,-0.8519,-0.8585,-0.8662,-0.8682,-0.8717,-0.8782,-0.8818,-0.8858,-0.8913,-0.8929,-0.8992,-0.9049,-0.91,-0.9175,-0.9199,-0.9256,-0.9266,-0.9236,-0.9241,-0.9258,-0.9256,-0.9303,-0.9312,-0.9295,-0.9295,-0.9295,0,-0.848,-0.8516,-0.8597,-0.863,-0.8667,-0.8718,-0.8756,-0.8808,-0.8845,-0.8916,-0.8943,-0.9003,-0.9054,-0.9144,-0.9195,-0.9253,-0.9266,-0.9279,-0.9275,-0.9262,-0.9267,-0.9265,-0.9269,-0.9279,-0.9279,-0.9279,-0.9279,0,-0.8499,-0.8524,-0.8577,-0.8639,-0.8683,-0.8734,-0.8786,-0.881,-0.8872,-0.8911,-0.8971,-0.9011,-0.9088,-0.9147,-0.9211,-0.9248,-0.9274,-0.9279,-0.9287,-0.9276,-0.9257,-0.9268,-0.9236,-0.9278,-0.9278,-0.9278,-0.9278,-0.9278,-0.8505,-0.8539,-0.8602,-0.866,-0.8705,-0.8753,-0.8791,-0.8836,-0.8887,-0.8956,-0.8983,-0.9044,-0.9102,-0.9191,-0.9228,-0.9276,-0.928,-0.9291,-0.9294,-0.9296,-0.9294,-0.9248,-0.9287,-0.9287,-0.9287,-0.9287,-0.9287,0,-0.8527,-0.857,-0.8622,-0.8695,-0.874,-0.8761,-0.882,-0.8856,-0.891,-0.8963,-0.9013,-0.9082,-0.914,-0.9196,-0.9257,-0.9284,-0.9297,-0.9298,-0.9297,-0.9305,-0.9286,-0.9274,-0.9286,-0.9286,-0.9286,-0.9286,-0.9286,-0.9286,-0.8544,-0.8604,-0.8635,-0.8717,-0.8759,-0.882,-0.8852,-0.8897,-0.894,-0.9015,-0.9064,-0.9101,-0.9155,-0.922,-0.9274,-0.9289,-0.9309,-0.9307,-0.9326,-0.9307,-0.9306,-0.9306,-0.9295,-0.9311,-0.9311,-0.9341,-0.9341,-0.9341]},{"header":{"parameterUnit":"m.s-1","parameterCategory":1,"la1":30.2991,"la2":30.254,"lo1":-89.0895,"lo2":-89.0444,"dy":0.0017,"dx":0.0017,"nx":28,"ny":28,"refTime":"2025-11-25T03:00:00:Z","depth":0,"parameterNumber":3,"parameterNumberName":"V-component_of_WINDS"},"data":[0,0,0,0,0,0,0,0,0,0,0,0,0,0,0,0,0,0,0,0,0,0,0,0,0,0,0,0,0,0,0,0,0,0,0,0,0,0,0,0,0,0,0,0,0,0,0,0,0,0,0,0,0,0,0,0,0,0,5.8671,5.8673,0,5.8866,5.8868,5.887,5.8924,5.8923,5.8921,5.892,5.9114,5.912,5.9126,0,0,0,0,0,0,0,0,0,0,0,0,0,5.8343,5.8348,5.8671,5.8673,5.8676,5.8866,5.8868,5.8871,5.8924,5.8923,5.8921,5.892,5.9112,5.9119,5.9127,0,0,0,0,0,0,0,0,0,0,0,0,0,5.8506,5.835,5.8671,5.8725,5.8732,5.8865,5.8868,5.8872,5.8924,5.8923,5.8921,5.8919,5.911,5.9119,5.9128,5.9218,0,0,5.9156,5.916,0,0,0,0,0,0,0,0,5.8497,5.8518,5.8715,5.8722,5.873,5.8869,5.8824,5.8988,5.8925,5.8851,5.892,5.8918,5.9034,5.9049,5.9089,5.9228,5.9236,5.9157,5.9163,5.9167,5.9169,0,0,0,0,0,0,0,5.8485,5.851,5.8748,5.8718,5.8727,5.874,5.8761,5.8855,5.8949,5.8857,5.8862,5.8884,5.9037,5.908,5.9094,5.9239,5.9157,5.9165,5.9171,5.9174,5.9467,5.9469,0,0,0,0,0,0,5.8465,5.85,5.8742,5.8754,5.8607,5.8747,5.8771,5.8826,5.8948,5.8965,5.8886,5.8886,5.9065,5.9083,5.9101,5.9219,5.9167,5.9175,5.9181,5.9464,5.9467,5.9469,0,0,0,0,0,0,5.8458,5.8486,5.8734,5.8628,5.8661,5.8754,5.8816,5.8831,5.8873,5.897,5.8986,5.8912,5.9064,5.9088,5.9191,5.9226,5.918,5.9188,5.9462,5.9465,5.9468,5.9452,0,0,0,0,0,0,5.8448,5.8483,5.8519,5.8629,5.8666,5.8821,5.8818,5.8836,5.889,5.8892,5.8999,5.9015,5.9065,5.9176,5.92,5.9238,5.9195,5.9459,5.9463,5.9467,5.945,5.9454,5.9458,0,0,0,0,0,5.8436,5.8504,5.852,5.8549,5.8713,5.8822,5.8844,5.8901,5.8892,5.8929,5.8992,5.9011,5.9218,5.9186,5.9213,5.9255,5.9457,5.9462,5.9467,5.9448,5.9454,5.9458,0,0,0,0,0,0,5.8392,5.8519,5.8538,5.8644,5.8723,5.8831,5.8879,5.8905,5.8985,5.8984,5.9051,5.9075,5.9173,5.9224,5.9186,5.9351,5.9338,5.9349,5.9314,5.9321,5.9325,5.9311,5.9203,0,0,0,0,0,5.8395,5.8475,5.8581,5.8664,5.8703,5.8784,5.8834,5.8872,5.8955,5.8988,5.9058,5.9136,5.922,5.9273,5.9354,5.9458,5.9483,5.95,5.9504,5.9507,5.9515,5.9578,5.9588,5.9486,5.9486,5.9486,0,0,5.8401,5.848,5.8526,5.8657,5.8722,5.8803,5.8811,5.8895,5.8956,5.9,5.9103,5.9157,5.9249,5.9354,5.9403,5.9399,5.955,5.9513,5.9515,5.9522,5.9584,5.9594,5.9602,5.9489,5.9488,5.9488,0,0,5.8454,5.8521,5.86,5.8666,5.8767,5.8821,5.884,5.8947,5.8986,5.909,5.9126,5.9199,5.934,5.9406,5.9458,5.9542,5.9564,5.9566,5.9588,5.9649,5.9657,5.9664,5.9697,5.9707,5.9574,5.9574,5.9574,0,5.8448,5.8573,5.8636,5.8721,5.8778,5.8826,5.8906,5.8967,5.9088,5.9126,5.9121,5.9303,5.9367,5.949,5.9512,5.9551,5.9576,5.9554,5.9651,5.9659,5.9667,5.9699,5.9711,5.9574,5.9574,5.9574,5.9574,0,5.8562,5.8648,5.87,5.882,5.8883,5.8964,5.9041,5.9097,5.9131,5.9187,5.9295,5.9376,5.9476,5.9508,5.954,5.9637,5.9632,5.9638,5.9626,5.9675,5.9707,5.9719,5.9574,5.9574,5.9574,5.9574,0,0,5.8589,5.8747,5.8765,5.8822,5.8939,5.9006,5.9091,5.9193,5.9242,5.9324,5.9399,5.952,5.9527,5.9586,5.9627,5.9679,5.9745,5.9679,5.9683,5.9691,5.9861,5.9857,5.987,5.9761,5.9764,5.9766,5.9854,0,5.8658,5.8815,5.8877,5.9003,5.9085,5.9134,5.9209,5.9288,5.9343,5.9421,5.9481,5.9567,5.9569,5.9606,5.966,5.9725,5.978,5.972,5.9831,5.9835,5.9808,5.9886,5.9881,5.9961,5.9866,5.9868,5.987,0,5.8759,5.8847,5.8983,5.9095,5.9131,5.9197,5.9298,5.9371,5.9464,5.9501,5.9569,5.9608,5.97,5.9683,5.9813,5.977,5.982,5.9859,5.9864,5.9877,5.9856,5.9903,5.9987,6.0,5.9889,5.9888,5.9886,0,5.8768,5.8921,5.9023,5.907,5.9201,5.9248,5.9304,5.9396,5.9454,5.9542,5.9582,5.9677,5.973,5.9804,5.9869,5.985,5.9993,5.998,6.0027,6.0026,6.0055,6.0053,6.015,6.0084,6.0084,6.0084,6.0084,0,5.884,5.8921,5.903,5.9093,5.9187,5.9258,5.9349,5.9409,5.9491,5.9567,5.9613,5.9683,5.9763,5.9844,5.9895,5.9996,6.0019,6.0052,6.0065,6.0049,6.0045,6.0082,6.0079,6.0087,6.0086,6.0086,6.0085,0,5.8865,5.8941,5.9057,5.9174,5.9206,5.927,5.9371,5.9434,5.9493,5.9589,5.9615,5.9708,5.9806,5.9878,6.0003,6.0038,6.0147,6.0159,6.0116,6.0123,6.0167,6.0163,6.0294,6.0316,6.0233,6.0233,6.0234,0,5.8906,5.8971,5.9097,5.9153,5.9211,5.9299,5.9361,5.9434,5.9497,5.9611,5.9661,5.9763,5.9849,6.0003,6.0081,6.0179,6.0194,6.0234,6.0209,6.0193,6.0198,6.0194,6.0203,6.0237,6.0237,6.0238,6.0238,0,5.8972,5.9008,5.9096,5.92,5.9273,5.9357,5.9442,5.9484,5.9573,5.9641,5.9744,5.9811,5.9942,6.0044,6.015,6.0208,6.0239,6.0246,6.0262,6.0247,6.0222,6.0239,6.0128,6.0242,6.0242,6.0241,6.0241,6.0241,5.9008,5.907,5.917,5.9269,5.9341,5.9421,5.9488,5.9558,5.9645,5.976,5.9798,5.9905,6.0,6.0147,6.0207,6.0292,6.0291,6.0314,6.032,6.0325,6.0326,6.0207,6.0311,6.0311,6.0311,6.0311,6.0311,0,5.9078,5.9147,5.9237,5.9356,5.9435,5.946,5.9556,5.9619,5.9714,5.9801,5.9886,6.0007,6.0107,6.0195,6.0299,6.0351,6.0368,6.0376,6.0373,6.0387,6.0319,6.0296,6.0361,6.0361,6.0361,6.0361,6.0361,6.0361,5.9124,5.9232,5.928,5.9426,5.9493,5.9601,5.9654,5.9729,5.9799,5.9933,6.0017,6.0075,6.0164,6.0276,6.037,6.0393,6.043,6.0436,6.0462,6.0397,6.0391,6.0385,6.0364,6.0442,6.0443,6.0524,6.0525,6.0525]}]]